Regional Weather Roundup
Issued by NWS Cleveland, OH

Home | Current Version | Previous Version | Graphics & Text | Print | Product List | Glossary On
Versions: 1 2 3 4 5 6 7 8 9 10 11 12 13 14 15 16 17 18 19 20 21 22 23 24 25 26 27 28 29 30 31 32 33 34 35 36 37 38 39 40 41 42 43 44 45 46 47 48 49 50
042
ASUS41 KCLE 091100
RWRCLE
OHIO REGIONAL WEATHER ROUNDUP
NATIONAL WEATHER SERVICE WILMINGTON, OH
600 AM EST FRI DEC 09 2016

NOTE: "FAIR" INDICATES FEW OR NO CLOUDS BELOW 12,000 FEET WITH NO
SIGNIFICANT WEATHER AND/OR OBSTRUCTIONS TO VISIBILITY.

OHZ001>008-015>018-024>027-034-035-043-044-091200-
   NORTHWEST OHIO

CITY           SKY/WX    TMP DP  RH WIND       PRES   REMARKS
DEFIANCE       CLOUDY    23  16  74 W8        30.38R WCI  14
FINDLAY        CLOUDY    23  15  71 W18       30.37R WCI   9
TOLEDO EXPRESS MOCLDY    22  18  85 W15       30.35R WCI   9
TOLEDO EXEC    CLOUDY    23  19  85 W13       30.36R WCI  11
LIMA           CLOUDY    21  16  81 W16G25    30.39R WCI   7
$$

OHZ009>014-019>023-028>033-038-089-091200-
   NORTHEAST OHIO

CITY           SKY/WX    TMP DP  RH WIND       PRES   REMARKS
CLE-HOPKINS    FLURRIES  25  17  72 SW15      30.35R WCI  13
CLE-LAKEFRONT  CLOUDY    26  19  74 SW25      30.31R WCI  11
CUY CO. ARPT   NOT AVBL
LORAIN-ELYRIA  CLOUDY    22  16  78 W13       30.33R WCI  10
ASHTABULA      CLOUDY    24  21  88 SW12      30.25R WCI  13
AKRON-CANTON   FLURRIES  22  16  78 W12       30.31R WCI  10
WOOSTER        CLOUDY    21  16  79 W15       30.33R WCI   8
MANSFIELD      LGT SNOW  20  16  84 W9        30.32R FOG     WCI   9
YOUNGSTOWN     LGT SNOW  23  18  81 W14       30.25R WCI  11
$$

OHZ042-051>053-060>062-070>072-077>081-091200-
  SOUTHWEST OHIO

CITY           SKY/WX    TMP DP  RH WIND       PRES   REMARKS
CINC-COVINGTON FLURRIES  22  14  71 W13       30.48R WCI  10
CINC-LUNKEN    CLOUDY    24  14  65 W10G22    30.53R WCI  14
HAMILTON       CLOUDY    23  15  71 W9        30.51R WCI  13
DAYTON         NOT AVBL
WRIGHT-PAT AFB NOT AVBL
DAYTON GENERAL FAIR      19  14  81 SW6       30.45R WCI  11
WILMINGTON     FAIR      18  13  80 W10       30.44R WCI   6
$$

OHZ036-037-039>041-045>050-054>059-063>069-073>076-082>088-091200-
  CENTRAL AND SOUTHEAST OHIO

CITY           SKY/WX    TMP DP  RH WIND       PRES   REMARKS
COLUMBUS       FLURRIES  21  16  81 W12       30.42R WCI   9
OSU AIRPORT    CLOUDY    21  15  78 W12       30.41R WCI   9
BOLTON FIELD   NOT AVBL
RICKENBACK AFB NOT AVBL
NEWARK         CLOUDY    22  15  75 W9        30.40R WCI  12
MARION         CLOUDY    21  15  78 W13       30.37R WCI   9
LANCASTER      CLOUDY    21  15  78 W10       30.43R WCI  10
ZANESVILLE     CLOUDY    22  15  75 SW10      30.39R WCI  11
NEW PHILLY     CLOUDY    22  17  81 W6        30.37R WCI  14
$$




USA.gov is the U.S. government's official web portal to all federal, state and local government web resources and services.